Change the Weather History Date:

Wednesday, March 19, 2014

  Actual Average (KMOT) Record (KMOT)
Temperature  
Mean Temperature 31 °F 30 °F  
Max Temperature 41 °F 38 °F 72 °F (1910)
Min Temperature 21 °F 21 °F -6 °F (1965)
Degree Days  
Heating Degree Days 34 35  
Month to date heating degree days 751  
Since 1 July heating degree days 7327  
Cooling Degree Days 0 0  
Month to date cooling degree days 0  
Year to date cooling degree days 0  
Moisture  
Dew Point 26 °F    
Average Humidity 82    
Maximum Humidity 100    
Minimum Humidity 45    
Precipitation  
Precipitation 0.50 in 0.03 in 0.42 in (1979)
Month to date precipitation 0.45  
Year to date precipitation 1.36  
Sea Level Pressure  
Sea Level Pressure 29.90 in    
Wind  
Wind Speed 7 mph (WNW)    
Max Wind Speed 16 mph    
Max Gust Speed 21 mph    
Visibility 9 miles    
Events Snow    
T = Trace of Precipitation, MM = Missing Value Source: NWS Daily Summary

Daily Weather History Graph

Daily Weather History Graph

Search for Another Location

Airport or City:

Trip Planner

Search our weather history database for the weather conditions in past years. The results will help you decide how hot, cold, wet, or windy it might be!

Date:

Astronomy

Mar. 19, 2014 Rise Set
Actual Time 7:54 AM CDT 8:01 PM CDT
Civil Twilight 7:23 AM CDT 8:32 PM CDT
Nautical Twilight 6:46 AM CDT 9:08 PM CDT
Astronomical Twilight 6:09 AM CDT 9:46 PM CDT
Moon 11:38 PM CDT 9:07 AM CDT
Length of Visible Light 13h 08m
Length of Day
12h 06m
Waning Gibbous, 91% of the Moon is Illuminated
Mar 19
Waning Gibbous
Mar 23
Last Quarter
Mar 30
New
Apr 7
First Quarter
Apr 15
Full

Hourly Weather History & Observations

Time (CDT) Temp. Windchill Dew Point Humidity Pressure Visibility Wind Dir Wind Speed Gust Speed Precip Events Conditions
12:15 AM 21.2 °F 14.9 °F 21.2 °F 100% 29.95 in 10.0 mi WSW 4.6 mph - N/A   Partly Cloudy
12:35 AM 23.0 °F 15.8 °F 23.0 °F 100% 29.95 in 10.0 mi SW 5.8 mph - N/A   Mostly Cloudy
12:55 AM 23.0 °F 17.0 °F 23.0 °F 100% 29.94 in 10.0 mi SSW 4.6 mph - N/A   Overcast
1:15 AM 23.0 °F 18.4 °F 23.0 °F 100% 29.94 in 10.0 mi SW 3.5 mph - N/A   Overcast
1:35 AM 24.8 °F 19.1 °F 24.8 °F 100% 29.94 in 10.0 mi SW 4.6 mph - N/A   Mostly Cloudy
1:55 AM 24.8 °F - 24.8 °F 100% 29.94 in 10.0 mi Calm Calm - N/A   Overcast
2:15 AM 28.4 °F 22.2 °F 28.4 °F 100% 29.94 in 2.5 mi West 5.8 mph - 0.07 in Snow Light Snow
2:35 AM 28.4 °F 22.2 °F 28.4 °F 100% 29.93 in 3.0 mi West 5.8 mph - 0.12 in Snow Light Snow
2:55 AM 28.4 °F 23.3 °F 28.4 °F 100% 29.93 in 1.8 mi West 4.6 mph - 0.32 in Snow Light Snow
3:15 AM 28.4 °F 22.2 °F 28.4 °F 100% 29.93 in 3.0 mi West 5.8 mph - 0.08 in Snow Light Snow
3:35 AM 28.4 °F 22.2 °F 28.4 °F 100% 29.92 in 4.0 mi West 5.8 mph - 0.11 in Snow Light Snow
3:55 AM 28.4 °F 22.2 °F 28.4 °F 100% 29.92 in 5.0 mi West 5.8 mph - 0.18 in Snow Light Snow
4:15 AM 28.4 °F 22.2 °F 28.4 °F 100% 29.91 in 10.0 mi West 5.8 mph - N/A Snow Light Snow
4:35 AM 26.6 °F - 26.6 °F 100% 29.90 in 10.0 mi Calm Calm - N/A Snow Light Snow
4:55 AM 26.6 °F 21.2 °F 26.6 °F 100% 29.90 in 10.0 mi SSW 4.6 mph - N/A   Overcast
5:15 AM 26.6 °F 22.6 °F 26.6 °F 100% 29.89 in 10.0 mi SW 3.5 mph - N/A   Mostly Cloudy
5:35 AM 24.8 °F 19.1 °F 24.8 °F 100% 29.90 in 10.0 mi WSW 4.6 mph - N/A   Overcast
5:55 AM 26.6 °F 20.0 °F 26.6 °F 100% 29.90 in 10.0 mi West 5.8 mph - N/A   Overcast
6:15 AM 24.8 °F 20.5 °F 24.8 °F 100% 29.90 in 10.0 mi WSW 3.5 mph - N/A   Overcast
6:35 AM 24.8 °F 19.1 °F 24.8 °F 100% 29.90 in 10.0 mi West 4.6 mph - N/A   Overcast
6:55 AM 23.0 °F 14.7 °F 23.0 °F 100% 29.90 in 10.0 mi West 6.9 mph - N/A   Overcast
7:15 AM 23.0 °F 13.9 °F 23.0 °F 100% 29.90 in 10.0 mi West 8.1 mph - N/A   Mostly Cloudy
7:35 AM 23.0 °F 13.9 °F 23.0 °F 100% 29.90 in 10.0 mi West 8.1 mph - N/A   Partly Cloudy
7:55 AM 23.0 °F 13.9 °F 23.0 °F 100% 29.91 in 10.0 mi West 8.1 mph - N/A   Scattered Clouds
8:15 AM 24.8 °F 14.0 °F 24.8 °F 100% 29.91 in 10.0 mi West 11.5 mph - N/A   Scattered Clouds
8:35 AM 24.8 °F 14.6 °F 24.8 °F 100% 29.91 in 10.0 mi WNW 10.4 mph - N/A   Partly Cloudy
8:55 AM 26.6 °F 16.2 °F 26.6 °F 100% 29.91 in 10.0 mi WNW 11.5 mph 16.1 mph N/A   Mostly Cloudy
9:15 AM 28.4 °F 18.5 °F 28.4 °F 100% 29.91 in 10.0 mi WNW 11.5 mph - N/A   Mostly Cloudy
9:35 AM 28.4 °F 18.5 °F 28.4 °F 100% 29.91 in 10.0 mi West 11.5 mph 17.3 mph N/A   Mostly Cloudy
9:55 AM 28.4 °F 18.5 °F 28.4 °F 100% 29.91 in 10.0 mi West 11.5 mph - N/A   Mostly Cloudy
10:15 AM 32.0 °F 23.6 °F 32.0 °F 100% 29.91 in 10.0 mi West 10.4 mph - N/A   Partly Cloudy
10:35 AM 32.0 °F 23.6 °F 32.0 °F 100% 29.91 in 10.0 mi West 10.4 mph 16.1 mph N/A   Clear
10:55 AM 32.0 °F 22.5 °F 32.0 °F 100% 29.91 in 10.0 mi West 12.7 mph 17.3 mph N/A   Clear
11:15 AM 32.0 °F 22.1 °F 32.0 °F 100% 29.91 in 10.0 mi WNW 13.8 mph 18.4 mph N/A   Partly Cloudy
11:35 AM 35.6 °F 27.5 °F 33.8 °F 93% 29.92 in 10.0 mi WNW 11.5 mph 19.6 mph N/A   Scattered Clouds
11:55 AM 35.6 °F 27.1 °F 33.8 °F 93% 29.92 in 10.0 mi WNW 12.7 mph 18.4 mph N/A   Mostly Cloudy
12:15 PM 35.6 °F 26.2 °F 32.0 °F 87% 29.92 in 10.0 mi NW 15.0 mph 18.4 mph N/A   Mostly Cloudy
12:35 PM 35.6 °F 27.5 °F 32.0 °F 87% 29.92 in 10.0 mi WNW 11.5 mph 19.6 mph N/A   Mostly Cloudy
12:55 PM 37.4 °F 28.5 °F 32.0 °F 81% 29.92 in 10.0 mi WNW 15.0 mph 18.4 mph N/A   Mostly Cloudy
1:15 PM 37.4 °F 29.3 °F 28.4 °F 70% 29.92 in 10.0 mi WNW 12.7 mph 18.4 mph N/A   Mostly Cloudy
1:35 PM 37.4 °F 30.3 °F 28.4 °F 70% 29.92 in 10.0 mi WNW 10.4 mph 19.6 mph N/A   Partly Cloudy
1:55 PM 39.2 °F 30.8 °F 26.6 °F 61% 29.91 in 10.0 mi WNW 15.0 mph 18.4 mph N/A   Scattered Clouds
2:15 PM 39.2 °F 31.2 °F 23.0 °F 52% 29.91 in 10.0 mi West 13.8 mph 19.6 mph N/A   Mostly Cloudy
2:35 PM 39.2 °F 31.6 °F 23.0 °F 52% 29.91 in 10.0 mi WNW 12.7 mph - N/A   Scattered Clouds
2:55 PM 39.2 °F 30.5 °F 23.0 °F 52% 29.91 in 10.0 mi NW 16.1 mph 20.7 mph N/A   Clear
3:15 PM 37.4 °F 30.3 °F 23.0 °F 56% 29.91 in 10.0 mi NW 10.4 mph 20.7 mph N/A   Scattered Clouds
3:35 PM 37.4 °F 29.8 °F 23.0 °F 56% 29.90 in 10.0 mi WNW 11.5 mph 19.6 mph N/A   Partly Cloudy
3:55 PM 39.2 °F 32.0 °F 23.0 °F 52% 29.89 in 10.0 mi NNW 11.5 mph 17.3 mph N/A   Partly Cloudy
4:15 PM 41.0 °F 33.1 °F 23.0 °F 49% 29.89 in 10.0 mi NNW 15.0 mph 18.4 mph N/A   Scattered Clouds
4:35 PM 39.2 °F 33.0 °F 23.0 °F 52% 29.89 in 10.0 mi NNW 9.2 mph 16.1 mph N/A   Partly Cloudy
4:55 PM 39.2 °F 32.5 °F 23.0 °F 52% 29.88 in 10.0 mi North 10.4 mph - N/A   Clear
5:15 PM 41.0 °F 35.8 °F 23.0 °F 49% 29.88 in 10.0 mi NNW 8.1 mph - N/A   Clear
5:35 PM 39.2 °F 33.0 °F 23.0 °F 52% 29.88 in 10.0 mi WNW 9.2 mph - N/A   Clear
5:55 PM 39.2 °F 34.2 °F 19.4 °F 45% 29.88 in 10.0 mi NNW 6.9 mph - N/A   Scattered Clouds
6:15 PM 39.2 °F 35.0 °F 19.4 °F 45% 29.88 in 10.0 mi NNW 5.8 mph - N/A   Partly Cloudy
6:35 PM 39.2 °F 34.2 °F 21.2 °F 49% 29.89 in 10.0 mi NNW 6.9 mph - N/A   Clear
6:55 PM 39.2 °F 35.0 °F 19.4 °F 45% 29.89 in 10.0 mi North 5.8 mph - N/A   Clear
7:15 PM 39.2 °F 37.0 °F 19.4 °F 45% 29.89 in 10.0 mi North 3.5 mph - N/A   Clear
7:35 PM 37.4 °F 34.9 °F 21.2 °F 52% 29.89 in 10.0 mi North 3.5 mph - N/A   Clear
7:55 PM 35.6 °F 32.8 °F 23.0 °F 60% 29.88 in 10.0 mi NNE 3.5 mph - N/A   Clear
8:15 PM 32.0 °F 28.7 °F 24.8 °F 75% 29.89 in 10.0 mi NNE 3.5 mph - N/A   Clear
8:35 PM 32.0 °F 28.7 °F 28.4 °F 87% 29.89 in 10.0 mi ENE 3.5 mph - N/A   Partly Cloudy
8:55 PM 32.0 °F 27.5 °F 24.8 °F 75% 29.89 in 10.0 mi ENE 4.6 mph - N/A   Clear
9:15 PM 32.0 °F 28.7 °F 23.0 °F 69% 29.88 in 10.0 mi East 3.5 mph - N/A   Clear
9:35 PM 32.0 °F 27.5 °F 23.0 °F 69% 29.88 in 10.0 mi East 4.6 mph - N/A   Clear
9:55 PM 30.2 °F 26.7 °F 24.8 °F 80% 29.88 in 10.0 mi ENE 3.5 mph - N/A   Mostly Cloudy
10:15 PM 28.4 °F 22.2 °F 23.0 °F 80% 29.88 in 10.0 mi ESE 5.8 mph - N/A   Overcast
10:35 PM 28.4 °F 24.6 °F 23.0 °F 80% 29.88 in 10.0 mi East 3.5 mph - N/A   Scattered Clouds
10:55 PM 28.4 °F 23.3 °F 24.8 °F 86% 29.87 in 10.0 mi East 4.6 mph - N/A   Clear
11:15 PM 28.4 °F 23.3 °F 23.0 °F 80% 29.87 in 10.0 mi East 4.6 mph - N/A   Clear
11:35 PM 28.4 °F 22.2 °F 24.8 °F 86% 29.87 in 10.0 mi ESE 5.8 mph - N/A   Clear
11:55 PM 28.4 °F 23.3 °F 24.8 °F 86% 29.87 in 10.0 mi ESE 4.6 mph - N/A   Clear